Stündliche Wetter Abramovschina 1

Heute, 23 Juni, Mittwoch

Zeit Temperatur Niederschläge Wind Luftdruck Luftfeuchtigkeit
00:00 +24°C° 0 mm 3 m/S 746 mmHg 81%
01:00 +24°C° 0 mm 3 m/S 747 mmHg 79%
02:00 +24°C° 0 mm 3 m/S 746 mmHg 75%
03:00 +22°C° 0 mm 3 m/S 746 mmHg 78%
04:00 +21°C° 0 mm 3 m/S 746 mmHg 82%
05:00 +21°C° 0 mm 2 m/S 746 mmHg 85%
06:00 +22°C° 0 mm 3 m/S 747 mmHg 80%
07:00 +25°C° 0 mm 3 m/S 747 mmHg 74%
08:00 +27°C° 0 mm 4 m/S 748 mmHg 69%
09:00 +28°C° 0 mm 4 m/S 748 mmHg 65%
10:00 +29°C° 0 mm 4 m/S 748 mmHg 61%
11:00 +30°C° 0 mm 4 m/S 748 mmHg 57%
12:00 +32°C° 0 mm 4 m/S 748 mmHg 55%
13:00 +33°C° 0 mm 4 m/S 748 mmHg 53%
14:00 +33°C° 0 mm 3 m/S 748 mmHg 51%
15:00 +33°C° 0 mm 3 m/S 748 mmHg 53%
16:00 +33°C° 0 mm 3 m/S 748 mmHg 56%
17:00 +32°C° 0 mm 2 m/S 748 mmHg 58%
18:00 +31°C° 0 mm 2 m/S 748 mmHg 64%
19:00 +29°C° 0 mm 2 m/S 748 mmHg 71%
20:00 +28°C° 0 mm 1 m/S 748 mmHg 78%
21:00 +26°C° 0.3 mm 1 m/S 748 mmHg 80%
22:00 +25°C° 0.3 mm 1 m/S 749 mmHg 83%
23:00 +24°C° 0.3 mm 1 m/S 749 mmHg 86%

Morgen, 24 Juni, Donnerstag

Zeit Temperatur Niederschläge Wind Luftdruck Luftfeuchtigkeit
00:00 +24°C° 0.2 mm 1 m/S 749 mmHg 87%
01:00 +23°C° 0.2 mm 1 m/S 749 mmHg 88%
02:00 +23°C° 0.2 mm 1 m/S 748 mmHg 88%
03:00 +23°C° 1.5 mm 1 m/S 749 mmHg 90%
04:00 +22°C° 1.5 mm 1 m/S 749 mmHg 92%
05:00 +22°C° 1.5 mm 1 m/S 749 mmHg 94%
06:00 +23°C° 0 mm 1 m/S 749 mmHg 90%
07:00 +25°C° 0 mm 2 m/S 749 mmHg 86%
08:00 +26°C° 0 mm 2 m/S 749 mmHg 83%
09:00 +28°C° 0 mm 2 m/S 749 mmHg 75%
10:00 +30°C° 0 mm 2 m/S 749 mmHg 67%
11:00 +31°C° 0 mm 2 m/S 749 mmHg 58%
12:00 +31°C° 0.4 mm 2 m/S 748 mmHg 60%
13:00 +31°C° 0.4 mm 2 m/S 748 mmHg 62%
14:00 +31°C° 0.4 mm 2 m/S 748 mmHg 64%
15:00 +31°C° 0.2 mm 2 m/S 748 mmHg 65%
16:00 +30°C° 0.2 mm 2 m/S 747 mmHg 67%
17:00 +30°C° 0.2 mm 2 m/S 746 mmHg 68%
18:00 +28°C° 0.3 mm 2 m/S 746 mmHg 74%
19:00 +27°C° 0.3 mm 2 m/S 746 mmHg 79%
20:00 +25°C° 0.3 mm 1 m/S 746 mmHg 84%
21:00 +24°C° 0.5 mm 2 m/S 746 mmHg 87%
22:00 +23°C° 0.5 mm 2 m/S 747 mmHg 90%
23:00 +21°C° 0.5 mm 2 m/S 747 mmHg 93%

übermorgen, 25 Juni, Freitag

Zeit Temperatur Niederschläge Wind Luftdruck Luftfeuchtigkeit
00:00 +21°C° 0.3 mm 2 m/S 746 mmHg 93%
01:00 +22°C° 0.3 mm 1 m/S 746 mmHg 92%
02:00 +22°C° 0.3 mm 1 m/S 745 mmHg 92%
03:00 +21°C° 0 mm 1 m/S 745 mmHg 92%
04:00 +20°C° 0 mm 2 m/S 745 mmHg 92%
05:00 +20°C° 0 mm 2 m/S 745 mmHg 92%
06:00 +21°C° 0 mm 2 m/S 745 mmHg 87%
07:00 +24°C° 0 mm 2 m/S 745 mmHg 82%
08:00 +25°C° 0 mm 2 m/S 746 mmHg 77%
09:00 +27°C° 0 mm 3 m/S 745 mmHg 72%
10:00 +28°C° 0 mm 3 m/S 745 mmHg 66%
11:00 +30°C° 0 mm 3 m/S 745 mmHg 60%
12:00 +30°C° 0.2 mm 3 m/S 745 mmHg 59%
13:00 +31°C° 0.2 mm 3 m/S 745 mmHg 58%
14:00 +31°C° 0.2 mm 3 m/S 745 mmHg 58%
15:00 +30°C° 1.4 mm 3 m/S 745 mmHg 65%
16:00 +28°C° 1.4 mm 4 m/S 745 mmHg 73%
17:00 +26°C° 1.4 mm 4 m/S 744 mmHg 81%
18:00 +25°C° 0.3 mm 3 m/S 744 mmHg 83%
19:00 +24°C° 0.3 mm 3 m/S 744 mmHg 86%
20:00 +21°C° 0.3 mm 3 m/S 744 mmHg 88%
21:00 +21°C° 0.3 mm 3 m/S 744 mmHg 90%
22:00 +20°C° 0.3 mm 3 m/S 744 mmHg 91%
23:00 +19°C° 0.3 mm 3 m/S 744 mmHg 93%

26 Juni, Samstag

Zeit Temperatur Niederschläge Wind Luftdruck Luftfeuchtigkeit
00:00 +19°C° 0.7 mm 2 m/S 744 mmHg 95%
01:00 +19°C° 0.7 mm 2 m/S 744 mmHg 96%
02:00 +19°C° 0.7 mm 2 m/S 743 mmHg 98%
03:00 +19°C° 0.3 mm 2 m/S 744 mmHg 98%
04:00 +19°C° 0.3 mm 2 m/S 744 mmHg 98%
05:00 +19°C° 0.3 mm 2 m/S 744 mmHg 97%
06:00 +20°C° 0 mm 2 m/S 744 mmHg 94%
07:00 +20°C° 0 mm 2 m/S 745 mmHg 91%
08:00 +20°C° 0 mm 3 m/S 745 mmHg 88%
09:00 +22°C° 0 mm 3 m/S 745 mmHg 81%
10:00 +24°C° 0 mm 3 m/S 745 mmHg 74%
11:00 +25°C° 0 mm 4 m/S 746 mmHg 67%
12:00 +25°C° 0 mm 4 m/S 746 mmHg 66%
13:00 +25°C° 0 mm 4 m/S 746 mmHg 65%
14:00 +25°C° 0 mm 4 m/S 746 mmHg 63%
15:00 +25°C° 0 mm 4 m/S 746 mmHg 64%
16:00 +25°C° 0 mm 4 m/S 746 mmHg 64%
17:00 +25°C° 0 mm 4 m/S 746 mmHg 64%
18:00 +22°C° 0 mm 3 m/S 746 mmHg 70%
19:00 +21°C° 0 mm 3 m/S 747 mmHg 76%
20:00 +20°C° 0 mm 2 m/S 747 mmHg 83%
21:00 +19°C° 0 mm 2 m/S 747 mmHg 87%
22:00 +18°C° 0 mm 2 m/S 747 mmHg 91%
23:00 +17°C° 0 mm 2 m/S 747 mmHg 95%

27 Juni, Sonntag

Zeit Temperatur Niederschläge Wind Luftdruck Luftfeuchtigkeit
00:00 +16°C° 0 mm 2 m/S 748 mmHg 95%
01:00 +16°C° 0 mm 2 m/S 748 mmHg 96%
02:00 +16°C° 0 mm 2 m/S 748 mmHg 97%
03:00 +15°C° 0 mm 2 m/S 748 mmHg 97%
04:00 +15°C° 0 mm 2 m/S 748 mmHg 96%
05:00 +15°C° 0 mm 2 m/S 748 mmHg 96%
06:00 +16°C° 0 mm 2 m/S 748 mmHg 90%
07:00 +18°C° 0 mm 2 m/S 748 mmHg 83%
08:00 +19°C° 0 mm 3 m/S 749 mmHg 77%
09:00 +20°C° 0 mm 3 m/S 749 mmHg 71%
10:00 +22°C° 0 mm 3 m/S 749 mmHg 66%
11:00 +24°C° 0 mm 3 m/S 749 mmHg 60%
12:00 +24°C° 0 mm 3 m/S 749 mmHg 61%
13:00 +24°C° 0 mm 2 m/S 749 mmHg 61%
14:00 +24°C° 0 mm 2 m/S 749 mmHg 62%
15:00 +24°C° 0 mm 2 m/S 749 mmHg 60%
16:00 +25°C° 0 mm 2 m/S 748 mmHg 58%
17:00 +25°C° 0 mm 2 m/S 748 mmHg 57%
18:00 +24°C° 0 mm 2 m/S 748 mmHg 62%
19:00 +23°C° 0 mm 2 m/S 748 mmHg 68%
20:00 +20°C° 0 mm 2 m/S 748 mmHg 74%
21:00 +19°C° 0 mm 2 m/S 749 mmHg 75%
22:00 +19°C° 0 mm 2 m/S 749 mmHg 77%
23:00 +18°C° 0 mm 2 m/S 749 mmHg 79%

28 Juni, Montag

Zeit Temperatur Niederschläge Wind Luftdruck Luftfeuchtigkeit
00:00 +17°C° 0 mm 2 m/S 749 mmHg 83%
01:00 +16°C° 0 mm 2 m/S 749 mmHg 86%
02:00 +15°C° 0 mm 2 m/S 749 mmHg 90%
03:00 +15°C° 0 mm 2 m/S 749 mmHg 90%
04:00 +15°C° 0 mm 2 m/S 749 mmHg 90%
05:00 +15°C° 0 mm 2 m/S 749 mmHg 90%
06:00 +17°C° 0 mm 2 m/S 749 mmHg 83%
07:00 +18°C° 0 mm 2 m/S 749 mmHg 76%
08:00 +20°C° 0 mm 2 m/S 749 mmHg 69%
09:00 +21°C° 0 mm 3 m/S 749 mmHg 63%
10:00 +22°C° 0 mm 3 m/S 749 mmHg 57%
11:00 +24°C° 0 mm 3 m/S 749 mmHg 52%
12:00 +25°C° 0 mm 3 m/S 749 mmHg 51%
13:00 +26°C° 0 mm 3 m/S 749 mmHg 50%
14:00 +26°C° 0 mm 3 m/S 749 mmHg 49%
15:00 +26°C° 0 mm 3 m/S 749 mmHg 53%
16:00 +25°C° 0 mm 3 m/S 749 mmHg 57%
17:00 +25°C° 0 mm 3 m/S 749 mmHg 62%
18:00 +24°C° 0 mm 2 m/S 748 mmHg 67%
19:00 +21°C° 0 mm 2 m/S 748 mmHg 73%
20:00 +20°C° 0 mm 2 m/S 748 mmHg 78%
21:00 +20°C° 0 mm 1 m/S 748 mmHg 82%
22:00 +19°C° 0 mm 1 m/S 748 mmHg 85%
23:00 +18°C° 0 mm 1 m/S 749 mmHg 89%
Mehr zeigen

Wir brauchen deine Erlaubnis

Meteoprog und unser Service Anbieter werden persönliche Daten aufbewahren, so wie Cookies, Geräte Bezeichnung oder ähnliche Technologien von deinem Gerät und Prozess, so wie Persönliche Daten Inhalte und Werbungen, genauso wie social Media und den Verkehr zu analysieren.

  • Aufbewahrung und/oder Zugang zu deiner Geräte Informationen.

    Cookies, Geräte Bezeichnung oder andere Informationen, können aufbewahrt oder Zugang zu deinem Gerät erhalten, für den Grund, der oben angegeben wird.

  • Personalisierte Werbung und Inhalte, Messungen, Einblick in das Publikum und Produkt Entwicklung.

    Werbungen und Inhalte können personalisiert werden, basierend auf ein Profil. Mehr Daten können besser personalisierte Werbungen und Inhalte hinzufügen. Werbung und Inhalte können gezeigt und gemessen werden. Einblicke über das Publikum, welche die Werbung gesehen haben und den Inhalt, können abgeleitet werden. So wie Daten können genutzt werden, um es zu verbessern oder die Benutzer Erfahrung zu verbessern das System und die Software.

Wenn du “Ich stimme zu” klickst, erlaubst du uns, die Cookies zu benutzen die Geräte Bezeichnung, den Web oder ähnliche Technologien zu benutzen. Deine Settings, können in deinem Gerät bei deinem Browser geändert werden.

Für den bestimmten Zweck, berechtigten Interessen beruhen darauf, mehr als auf den Inhalt. Du kannst mehr darüber in unseren Privaten und Cookie Politik lesen.